Wind_Speed
1 4 6 5 8 8 7 6 5 5 7 7 4 5 5 3 4 3 3 2 2 1 3 5 7 8 10 10 11 13 14 15 15 15 14 13 12 12 12 12 10 6 2
2 3 5 6 7 7 6 6 6 6 7 6 3 5 7 5 5 4 4 3 2 3 4 5 7 8 8 9 11 12 13 14 15 16 15 13 12 13 12 13 10 4 3
3 6 6 7 7 6 5 4 3 2 4 4 5 4 6 6 4 4 3 2 2 3 4 6 7 7 7 9 10 12 14 14 15 16 15 14 11 12 12 13 10 5 5
5 6 7 8 9 8 8 7 6 5 5 3 3 4 4 1 2 3 4 4 6 6 7 9 10 9 8 6 8 11 14 15 15 17 16 14 11 11 12 13 10 6 7
5 5 6 8 8 7 10 8 7 4 3 3 0 5 0 2 4 5 6 6 7 9 8 9 9 7 6 4 5 8 12 14 15 17 17 15 13 11 11 13 11 6 6
4 3 3 6 6 6 10 9 9 6 4 1 3 2 2 2 3 4 6 5 5 8 7 6 7 8 5 4 2 7 9 14 14 16 17 16 15 12 10 12 10 6 5
4 2 4 6 6 5 9 8 6 6 5 3 4 8 8 3 3 4 5 4 5 7 7 6 5 5 5 3 6 7 10 12 14 15 16 17 15 14 10 9 8 5 3
4 4 4 6 5 4 6 7 5 3 6 5 3 4 2 2 4 1 2 1 3 5 4 3 2 4 4 6 10 8 8 11 14 13 15 15 16 16 11 7 7 4 2
6 4 3 5 4 5 5 7 7 5 3 7 6 3 2 2 2 2 2 1 3 4 4 5 3 7 11 11 10 7 8 12 13 14 13 14 14 15 12 7 5 5 3
6 4 3 3 2 3 4 4 5 6 3 4 6 8 4 3 2 3 5 7 8 11 8 9 8 11 10 8 7 10 10 11 12 14 14 13 12 13 12 9 5 3 3
7 7 4 4 3 2 3 2 3 3 4 5 3 2 3 3 3 2 3 5 7 8 4 7 7 10 8 10 12 12 13 11 14 14 14 11 10 9 10 9 7 4 3
10 10 9 6 5 3 3 4 3 2 1 2 3 2 2 2 1 3 2 2 6 4 4 6 10 13 14 13 11 11 13 13 13 14 12 12 12 10 10 9 9 7 5
15 13 9 11 9 7 6 5 5 5 4 3 2 0 3 2 2 3 1 1 2 4 4 5 12 12 14 12 10 9 9 11 14 14 11 9 8 8 9 10 8 7 7
16 14 13 11 10 9 8 8 7 7 6 6 5 4 4 4 2 1 1 1 1 2 3 5 5 11 12 12 12 11 10 10 11 15 14 9 5 4 6 8 9 8 7
16 14 14 14 14 13 12 10 10 8 9 8 7 8 8 8 7 5 3 3 1 1 2 3 5 9 9 8 12 12 11 9 10 10 12 11 9 6 6 8 10 10 8
15 16 15 13 15 15 14 13 11 10 9 8 8 5 4 6 6 6 7 5 5 3 2 2 1 5 10 8 11 10 10 9 9 10 11 8 8 7 8 11 16 13 6
13 14 15 16 16 16 14 13 12 11 10 9 9 10 9 8 8 8 7 6 5 4 3 4 4 2 4 6 9 11 11 10 11 13 10 8 9 8 7 11 15 7 4
12 12 16 15 13 15 15 16 14 13 12 11 10 11 9 9 9 8 7 7 6 6 6 6 4 3 3 7 9 11 10 10 11 16 12 14 12 10 10 12 13 13 9
13 11 12 15 16 15 15 14 15 14 13 13 11 11 10 9 10 11 10 8 7 6 5 4 4 3 3 6 8 9 12 17 17 15 16 16 15 13 11 12 10 7 6
16 13 13 12 13 15 15 14 15 13 13 12 11 9 8 9 13 11 10 9 7 7 7 5 3 2 3 4 6 7 8 15 16 17 18 21 20 22 23 21 15 11 9
20 17 13 13 11 13 14 16 13 12 14 13 12 10 9 8 9 10 10 9 8 6 4 4 3 1 1 3 4 5 5 7 16 17 16 19 21 24 25 23 21 18 16
20 19 18 14 13 11 12 13 11 13 17 16 13 12 12 10 9 8 8 8 7 7 6 4 4 2 3 2 1 3 4 4 2 10 13 16 19 25 26 27 19 19 22
21 19 16 13 16 12 10 7 7 10 9 14 15 15 12 10 9 8 9 9 8 7 6 5 6 6 5 4 2 1 3 5 5 8 10 12 13 22 21 23 20 19 19
15 14 12 14 18 14 8 5 7 9 9 9 11 15 13 11 10 10 9 7 6 6 6 7 8 8 8 7 5 2 3 6 4 8 5 6 12 14 14 19 21 20 17
11 11 18 19 22 20 17 11 6 5 6 8 7 10 10 9 9 11 10 8 5 2 1 4 5 3 2 3 6 6 5 7 3 3 7 5 6 10 13 15 15 18 22
7 9 16 17 19 17 15 12 12 7 8 7 7 6 6 5 4 6 11 9 9 6 7 9 8 7 6 6 4 4 4 4 4 3 6 3 3 5 5 7 11 12 16
Wind_Direction
112 48 64 59 58 45 39 44 29 27 22 14 350 325 305 324 21 80 107 122 107 48 8 357 350 351 351 352 356 356 349 348 347 355 354 349 354 3 358 349 345 330 264
131 62 68 67 58 43 47 21 18 21 19 21 49 53 83 82 70 79 92 86 48 356 354 344 349 349 353 357 4 358 351 352 351 359 356 350 355 6 5 3 2 21 139
115 95 86 84 60 52 22 355 349 14 52 54 90 61 76 82 66 74 63 22 344 347 340 345 339 341 348 356 1 359 0 1 1 6 1 354 360 7 12 15 19 45 101
104 108 100 98 59 55 34 29 31 93 89 98 75 30 48 4 336 344 339 327 326 322 320 314 315 318 313 323 357 16 17 18 15 10 9 1 6 10 18 25 28 61 108
106 100 109 79 77 57 42 36 61 122 140 134 43 37 36 351 326 312 317 308 308 309 312 324 322 322 322 281 7 22 24 21 17 15 15 13 12 16 20 35 34 57 114
116 96 119 98 83 68 56 57 80 90 104 296 310 321 312 300 331 308 324 332 319 317 320 317 321 321 308 296 5 12 21 19 17 21 19 17 14 20 18 41 40 50 105
140 118 155 128 95 79 67 73 94 93 80 118 111 94 68 34 291 304 296 318 315 308 304 323 329 -0 20 11 330 348 10 9 17 20 19 18 17 20 18 31 48 51 77
189 164 139 143 121 107 85 70 65 106 54 81 105 110 40 23 36 343 249 310 304 298 323 349 12 27 352 4 346 319 352 10 16 13 17 14 18 21 19 20 33 42 75
191 178 151 156 137 142 110 80 59 58 99 71 84 130 130 221 294 254 232 231 291 289 315 322 308 310 319 311 358 21 25 9 15 9 5 7 15 16 17 19 21 13 8
206 189 172 166 148 141 133 110 80 60 84 101 65 68 90 145 162 327 260 244 264 275 309 297 302 326 327 325 15 15 12 14 15 7 2 360 12 14 13 12 11 350 330
212 214 207 194 183 153 193 155 125 94 81 77 75 100 80 86 106 106 295 323 288 287 318 345 355 25 37 41 30 23 24 28 20 8 1 2 22 23 14 9 358 335 295
223 227 227 215 216 222 212 227 223 211 146 107 69 64 148 153 161 162 224 299 305 331 356 40 36 32 31 25 19 26 31 28 15 10 21 34 32 32 23 16 358 340 319
227 228 224 226 227 225 239 235 237 246 247 236 231 256 159 113 116 142 182 262 313 322 353 33 41 36 31 15 10 17 22 20 17 15 22 33 28 25 20 19 360 348 339
234 237 234 231 232 238 239 236 230 237 235 230 242 254 241 218 213 162 254 158 355 326 326 344 28 16 15 35 51 48 46 53 42 29 27 21 25 14 355 1 343 325 322
234 240 243 242 234 240 239 244 236 239 243 244 251 250 255 248 260 258 264 260 170 318 288 349 335 5 24 44 53 57 54 43 28 18 21 25 26 359 339 336 318 308 299
235 231 231 235 229 235 240 238 237 237 243 242 231 241 238 248 265 267 262 270 261 230 269 249 303 12 47 46 36 37 39 25 20 11 6 349 333 326 321 322 304 277 296
239 242 230 235 231 231 237 239 242 237 239 246 245 242 250 247 252 257 255 253 265 250 251 279 254 336 24 27 21 18 9 32 34 38 29 4 2 348 330 320 302 290 184
245 244 241 234 235 231 235 239 230 236 240 246 246 231 236 240 254 240 243 254 255 250 252 271 280 281 294 6 15 22 53 61 62 53 35 30 35 33 43 54 80 109 130
244 251 238 240 247 232 235 237 237 237 247 253 253 245 250 245 246 246 248 249 246 236 245 263 297 292 304 351 10 47 75 73 69 62 54 51 47 46 55 69 75 73 64
246 251 239 242 249 240 245 246 248 243 241 244 228 242 255 261 252 246 248 246 243 246 269 275 272 302 329 341 18 41 78 69 73 73 71 66 63 63 59 58 55 49 33
248 251 250 253 255 248 245 241 242 245 235 238 230 240 246 253 256 258 256 253 246 267 281 291 292 298 308 344 41 41 53 120 63 76 77 63 66 66 63 62 58 54 53
242 243 241 246 248 247 253 262 251 258 247 241 246 240 237 243 251 253 248 246 233 231 241 249 261 261 261 245 144 77 80 124 106 52 78 76 68 67 64 66 63 65 74
236 224 232 252 233 238 245 262 271 261 255 247 244 233 238 241 247 250 246 248 228 231 242 236 233 236 245 213 224 80 96 108 88 44 123 82 74 76 68 66 64 67 71
218 210 230 242 238 232 218 261 273 260 249 245 237 226 225 230 235 238 237 216 214 227 231 236 240 238 236 225 230 202 117 144 119 32 92 104 106 88 78 64 64 65 66
202 239 249 232 238 220 230 250 281 258 241 238 238 224 232 244 255 239 228 205 201 209 245 247 239 236 218 201 181 170 163 168 153 51 45 114 109 128 78 64 57 60 61
242 260 257 231 216 213 209 217 230 242 220 196 179 184 194 195 205 225 234 230 193 181 153 134 132 123 118 121 136 159 160 143 140 139 24 122 91 151 157 75 57 56 49
Height
861 862 862 862 862 861 860 860 860 860 860 860 860 861 861 863 863 863 863 863 863 864 864 864 863 862 860 858 856 855 851 848 846 843 841 838 835 834 831 827 826 824 824
862 862 863 862 862 861 861 860 860 860 860 861 862 862 862 864 864 864 864 864 865 865 865 864 862 861 860 857 856 854 851 848 845 843 839 838 835 834 830 827 825 824 823
863 863 863 862 862 861 861 860 860 860 861 862 863 864 865 867 867 865 865 866 865 866 865 863 862 860 859 858 855 853 851 848 845 842 840 837 835 833 830 828 826 826 825
864 864 863 863 862 862 861 861 860 860 861 862 864 866 867 868 867 866 866 866 866 866 864 863 860 859 858 856 854 853 851 849 845 842 840 837 835 833 831 829 828 827 828
865 864 864 864 863 862 862 862 861 861 862 863 865 867 867 867 867 867 866 866 866 865 864 862 860 858 856 854 854 852 850 849 847 843 840 837 835 833 833 830 829 829 830
866 865 865 865 864 864 864 862 862 861 862 863 864 865 866 867 867 866 866 866 866 865 863 861 859 857 855 855 853 852 850 849 846 844 841 838 835 834 834 832 830 831 831
865 865 865 866 866 865 865 863 863 862 862 862 863 865 867 867 866 866 865 865 865 863 862 861 859 858 857 855 854 853 850 848 846 844 842 839 836 835 834 833 833 833 833
866 866 865 866 866 865 866 864 864 863 863 862 863 864 868 869 866 866 865 865 864 863 862 861 860 859 857 855 854 852 850 848 846 843 842 840 837 835 835 834 834 835 835
865 865 866 866 866 866 866 865 864 863 863 863 863 864 868 869 867 865 865 866 864 862 862 861 860 858 857 854 852 851 849 847 845 842 841 839 837 835 834 835 835 835 836
864 865 865 866 866 866 866 865 865 864 864 864 865 864 864 865 867 867 864 865 863 860 861 860 858 857 855 853 852 851 848 847 844 842 839 838 837 836 835 834 834 835 834
863 864 865 866 866 867 867 867 866 865 865 865 864 865 865 865 866 867 868 864 862 859 860 859 858 856 855 853 851 850 848 845 844 841 838 836 835 835 835 834 834 834 834
861 862 863 864 866 866 867 867 867 866 865 865 865 865 865 864 865 866 867 865 863 860 858 858 857 856 855 853 851 849 847 845 843 841 838 837 836 835 835 834 833 833 834
858 860 861 862 864 865 866 865 866 866 866 865 865 866 866 865 865 865 864 864 864 860 858 858 858 856 855 853 850 848 846 845 843 841 838 837 836 835 835 833 833 833 833
858 859 860 860 861 863 864 864 864 865 865 866 865 865 865 865 865 864 864 863 864 862 860 859 858 857 855 853 850 848 847 845 843 841 839 837 836 835 835 833 832 832 832
856 858 859 859 860 861 862 863 864 864 864 864 864 864 864 865 865 864 863 863 863 864 862 859 859 858 855 854 851 849 847 846 844 842 840 839 837 836 834 832 831 830 831
854 855 856 857 858 859 860 861 861 862 862 863 863 862 862 863 864 863 863 863 862 862 862 859 859 858 856 854 853 851 849 848 845 843 840 838 836 834 833 830 828 828 829
851 852 853 855 857 858 858 858 859 859 860 861 860 861 861 861 862 863 863 862 862 861 861 859 857 856 855 854 853 852 850 848 847 844 840 837 835 833 831 828 824 823 827
848 849 850 852 852 854 855 855 855 856 857 858 858 859 859 859 860 861 861 861 860 860 860 859 857 855 854 853 853 851 850 849 848 846 841 839 836 834 831 828 825 826 828
846 846 846 848 850 851 853 854 853 853 854 854 855 855 856 857 858 858 859 859 859 858 858 857 856 855 854 853 851 852 852 852 850 848 845 842 839 837 835 832 831 831 831
843 844 845 846 847 848 850 850 850 850 851 851 851 853 853 853 854 855 856 856 856 856 856 855 855 855 854 853 851 851 852 852 851 851 849 846 843 841 839 837 835 834 833
840 842 843 845 845 845 845 846 847 848 848 849 849 849 850 851 852 852 852 852 852 853 853 853 853 853 852 852 852 852 851 853 853 852 852 850 847 845 843 841 841 839 836
835 838 839 841 842 842 843 844 844 846 846 846 846 847 847 847 847 848 849 849 849 849 849 850 850 851 852 852 853 852 850 850 852 854 854 855 852 850 850 849 847 843 839
831 832 835 837 839 840 841 842 842 843 842 843 843 843 844 845 845 846 845 846 846 847 848 848 849 849 850 850 852 852 851 852 853 853 854 856 857 854 855 853 850 847 846
826 829 832 832 835 836 839 840 840 840 840 839 840 841 842 843 844 845 846 845 846 846 845 846 847 847 847 848 850 851 852 853 853 853 851 855 858 859 858 856 854 850 847
822 826 826 828 829 832 833 834 839 838 837 839 840 840 841 841 843 845 847 845 845 845 845 845 845 845 845 846 846 848 849 850 851 852 852 853 854 856 858 858 857 853 850
818 821 824 824 827 827 828 830 836 836 838 839 839 839 840 840 841 843 845 845 844 846 846 846 846 846 846 847 848 848 848 848 850 852 853 854 853 854 856 856 855 854 853